Regional Weather Roundup
Issued by NWS

Home | Current Version | Previous Version | Graphics & Text | Print | Product List | Glossary On
Versions: 1 2 3 4 5 6 7 8 9 10 11 12 13 14 15 16 17 18 19 20 21 22 23 24 25 26 27 28 29 30 31 32 33 34 35 36 37 38 39 40 41 42 43 44 45 46 47 48 49 50
549
ASUS45 KBOU 011107
RWRCO

WEATHER ROUNDUP FOR COLORADO
NATIONAL WEATHER SERVICE DENVER/BOULDER CO
500 AM MDT SUN MAY 01 2016

NOTE: "FAIR" INDICATES FEW OR NO CLOUDS BELOW 12000 FEET WITH NO
SIGNIFICANT WEATHER AND/OR OBSTRUCTIONS TO VISIBILITY.

COZ001>005-013-030-031-011200-
...NORTHWEST COLORADO...

CITY           SKY/WX    TMP DP  RH WIND       PRES   REMARKS
CRAIG          FAIR      34  22  61 E14       30.12S WCI  25
HAYDEN         FAIR      34  19  55 E13       30.13S WCI  25
MEEKER         MOCLDY    34  22  61 NE9       30.06R WCI  27
MOUNT WERNER   NOT AVBL
STEAMBOAT SPGS FAIR      33  19  55 NE15G21   30.13S WCI  23
WALDEN         CLOUDY    27  21  80 NE13G22   30.21S WCI  16
$$

COZ006>008-011-011200-
...WEST CENTRAL VALLEYS...

CITY           SKY/WX    TMP DP  RH WIND       PRES   REMARKS
GRAND JUNCTION FAIR      43  26  51 VRB7      29.97S
MONTROSE       FAIR      36  28  73 CALM      30.00S
EAGLE          FAIR      32  27  80 CALM      30.13S
RIFLE          FAIR      36  26  67 NW3       30.04R
DELTA          NOT AVBL
NUCLA          NOT AVBL
$$

COZ017>023-064>068-011200-
...SOUTHWEST COLORADO...

CITY           SKY/WX    TMP DP  RH WIND       PRES   REMARKS
DURANGO        LGT RAIN  37  36  96 E12       29.95S
CORTEZ         MOCLDY    37  34  89 CALM      29.90F
PAGOSA SPRINGS FLURRIES  36  29  76 E9G16     29.99F
TELLURIDE      FAIR      29  26  89 CALM      29.99R
WOLF CREEK PAS LGT SNOW  18  18 100 NE20      30.09S WCI   1
$$

COZ009-010-012-014-032>034-037-058>063-011200-
...CENTRAL COLORADO...

CITY           SKY/WX    TMP DP  RH WIND       PRES   REMARKS
ASPEN          MOCLDY    33  17  51 SE10      30.05S WCI  25
BUENA VISTA    CLOUDY    27  22  81 CALM      30.19S
COPPER MTN     NOT AVBL
BERTHOUD PASS  CLOUDY     9   0  66 NE9G23    30.15R WCI  -5
COTTONWOOD PAS CLOUDY    27  19  74 CALM      30.17S
GUNNISON       MOCLDY    34  18  51 E7        30.08S WCI  28
KREMMLING      FAIR      27  21  80 SE6       30.18R WCI  20
LEADVILLE      MOCLDY    16  13  88 E3        30.13R
SALIDA         CLOUDY    31  27  82 CALM      30.25S
SUNLIGHT       FAIR     N/A N/A N/A NE7       30.10S
WILKERSON PASS LGT SNOW N/A N/A N/A CALM      30.19R
$$

COZ069>075-011200-
...SAN LUIS VALLEY/SANGRE DE CRISTO MOUNTAINS...

CITY           SKY/WX    TMP DP  RH WIND       PRES   REMARKS
ALAMOSA        CLOUDY    32  24  72 SE7       30.09R WCI  26
LA VETA PASS   FOG       21  18  86 MISG      30.14S VSB 1/2
SAGUACHE       CLOUDY    32  23  69 NE6       30.09R WCI  26
$$

COZ035-036-038>040-011200-
...NORTHERN COLORADO FRONT RANGE...

CITY           SKY/WX    TMP DP  RH WIND       PRES   REMARKS
DENVER INTL AP FLURRIES  33  29  85 N13       30.24R WCI  24
DMNS CITY PARK   N/A     34  30  83 N10G20    30.26R WCI  26
AURORA         CLOUDY    32  32  99 NW12      30.25R WCI  23
FRONT RANGE AP NOT AVBL
ERIE MUNI ARPT CLOUDY    36  32  86 N7        30.26R
BOULDER MUN AP CLOUDY    36  32  87 W3        30.26R
CENTENNIAL     FLURRIES  32  29  88 N15       30.24R WCI  22
BROOMFIELD     FLURRIES  34  32  93 NW7       30.26R WCI  28
FORT COLLINS   MOCLDY    36  28  75 N9        30.27R
LONGMONT       FLURRIES  39  31  74 N8        30.28R
$$

COZ041-046-047-076>085-087-088-011200-
...PIKES PEAK/PALMER DIVIDE AND SOUTHERN FOOTHILLS...

CITY           SKY/WX    TMP DP  RH WIND       PRES   REMARKS
COLO. SPRINGS  FLURRIES  33  26  75 N20G26    30.20R WCI  21
A. F. ACADEMY  MIX PCPN  32  27  80 N22G28    30.20R WCI  19
SCHRIEVER AFB  NOT AVBL
ELLICOTT       NOT AVBL
FALCON         LGT SNOW  29  27  91 NW15G24   30.19R WCI  18
FORT CARSON    CLOUDY    36  27  69 N28G33    30.18R
LIMON          CLOUDY    31  30  96 N25G37    30.18R WCI  17
MONUMENT HILL  LGT SNOW  27  27 100 N21G30    30.21R WCI  13
TRINIDAD       CLOUDY    34  27  75 VRB5      30.20R WCI  30
$$

COZ042>045-048>051-090-091-011200-
...NORTHEAST COLORADO...

CITY           SKY/WX    TMP DP  RH WIND       PRES   REMARKS
GREELEY ARPT   CLOUDY    37  30  75 N9        30.26R
AKRON          CLOUDY    32  30  92 N21       30.19R WCI  20
BURLINGTON     CLOUDY    34  31  88 N20G29    30.13R WCI  23
WRAY           NOT AVBL
STERLING       CLOUDY    36  34  93 N17G23    30.20R
HOLYOKE        NOT AVBL
FORT MORGAN    CLOUDY    35  32  89 N12       30.24R WCI  27
$$

COZ086-089-092>099-011200-
...SOUTHEAST COLORADO...

CITY           SKY/WX    TMP DP  RH WIND       PRES   REMARKS
PUEBLO         FAIR      40  27  59 N14G26    30.19R
LA JUNTA       CLOUDY    40  31  70 N16       30.18R
LAMAR          CLOUDY    40  33  76 N20       30.13R
SPRINGFIELD      N/A     38  30  73 NW22G32   30.14R
$$




USA.gov is the U.S. government's official web portal to all federal, state and local government web resources and services.